Bookmark and Share
Track history (hours):
 

Patcona II

More information available from US FCC via Universal Licensing System and Coast Guard Vessel Documentation Center.

Last reported at 2014-Apr-24 05:12 UTC. Time now 2014-Apr-24 06:12 UTC.
Position N 33°46' W 118°13'.

; draft 9 m.

Type: Towing. MMSI: 366988960.

NotesDate/timePositionNaut miles runAvg speedWind from/ knotsBaromVisibWave heightAir tempDewpointWater temp
2014-Apr-24 05:12N 33°46' W 118°13'0 0.0
2014-Apr-24 04:33N 33°46' W 118°13'0 0.0
2014-Apr-24 03:33N 33°46' W 118°13'0 0.0
2014-Apr-24 02:32N 33°46' W 118°13'0 0.0
2014-Apr-24 01:30N 33°46' W 118°13'0 0.0
2014-Apr-23 23:33N 33°46' W 118°13'0 0.0
2014-Apr-23 22:33N 33°46' W 118°13'120543.0
2014-Apr-22 18:33N 29°46' W 095°04'7 6.7
2014-Apr-22 17:33N 29°41' W 094°59'6 6.1
2014-Apr-22 16:33N 29°35' W 094°56'7 7.3
2014-Apr-22 15:33N 29°29' W 094°52'1221299.0
2014-Apr-22 11:28N 33°46' W 118°13'0 0.0
2014-Apr-22 10:30N 33°46' W 118°13'0 0.0
2014-Apr-22 09:25N 33°46' W 118°13'0 0.0
2014-Apr-22 08:32N 33°46' W 118°13'0 0.0
2014-Apr-22 07:30N 33°46' W 118°13'0 0.0
2014-Apr-22 06:30N 33°46' W 118°13'0 0.0
2014-Apr-22 04:09N 33°46' W 118°13'0 0.0
2014-Apr-22 03:33N 33°46' W 118°13'0 0.0
2014-Apr-22 02:33N 33°46' W 118°13'0 0.0
2014-Apr-22 01:34N 33°46' W 118°13'0 0.0
2014-Apr-22 00:32N 33°46' W 118°13'0 0.0
2014-Apr-21 23:33N 33°46' W 118°13'0 0.0
2014-Apr-21 22:33N 33°46' W 118°13'0 0.0
2014-Apr-21 21:33N 33°46' W 118°13'0 0.0
2014-Apr-21 16:32N 33°46' W 118°13'0 0.0
2014-Apr-21 13:29N 33°46' W 118°13'0 0.0
2014-Apr-21 12:21N 33°46' W 118°13'0 0.0
2014-Apr-21 11:25N 33°46' W 118°13'0 0.0
2014-Apr-21 10:33N 33°46' W 118°13'0 0.0
2014-Apr-21 09:11N 33°46' W 118°13'0 0.0
2014-Apr-21 08:20N 33°46' W 118°13'0 0.0
2014-Apr-21 06:10N 33°46' W 118°13'0 0.0
2014-Apr-21 05:33N 33°46' W 118°13'12221139.0
2014-Apr-21 04:29N 29°27' W 094°50'12229444.1
2014-Apr-21 04:21N 33°46' W 118°13'12171514.3
2014-Apr-21 03:33N 29°33' W 094°54'1217876494.1
2014-Apr-21 03:33N 33°46' W 118°13'12121217.5
2014-Apr-21 02:33N 29°39' W 094°58'12125220.9
2014-Apr-21 02:19N 33°46' W 118°13'12071512.0
2014-Apr-21 01:31N 29°44' W 095°03'12071448521.1
2014-Apr-21 01:31N 33°46' W 118°13'0 0.0
2014-Apr-21 00:33N 33°46' W 118°13'120316472.2
2014-Apr-21 00:29N 29°46' W 095°06'12031298.6
2014-Apr-20 23:33N 33°46' W 118°13'0 0.0
2014-Apr-20 22:33N 33°46' W 118°13'120427956.3
2014-Apr-20 22:31N 29°46' W 095°06'12041254.2
2014-Apr-20 21:33N 33°46' W 118°13'1202116976.9
2014-Apr-20 21:32N 29°44' W 095°08'12021215.1
2014-Apr-20 20:33N 33°46' W 118°13'119930387.5
2014-Apr-20 20:31N 29°44' W 095°13'0 0.0
2014-Apr-20 19:28N 29°44' W 095°13'0 0.0
2014-Apr-20 18:31N 29°44' W 095°13'1 0.1
2014-Apr-20 12:29N 29°44' W 095°12'1 0.6
2014-Apr-20 10:18N 29°45' W 095°11'5 0.7
2014-Apr-20 03:33N 29°46' W 095°05'1204282.0
2014-Apr-19 23:17N 33°46' W 118°13'12045786.1
2014-Apr-19 23:04N 29°46' W 095°06'12042277.4
2014-Apr-19 22:33N 33°46' W 118°13'0 0.0
2014-Apr-19 20:33N 33°46' W 118°13'120330942.9
2014-Apr-19 20:31N 29°47' W 095°06'2 0.2
2014-Apr-19 13:04N 29°45' W 095°06'0 0.0
2014-Apr-19 12:22N 29°45' W 095°06'0 0.0
2014-Apr-19 04:07N 29°45' W 095°06'0 0.0
2014-Apr-19 00:10N 29°45' W 095°06'0 0.0
2014-Apr-18 23:32N 29°45' W 095°06'9 0.9
2014-Apr-18 13:29N 29°44' W 095°16'5 5.7
2014-Apr-18 12:33N 29°45' W 095°11'2 1.0
2014-Apr-18 10:20N 29°44' W 095°08'1 0.2
2014-Apr-18 05:32N 29°44' W 095°07'3 2.6
2014-Apr-18 04:34N 29°46' W 095°04'6 5.9
2014-Apr-18 03:34N 29°42' W 094°59'1 0.4
2014-Apr-18 01:15N 29°41' W 095°00'0 0.0
2014-Apr-18 00:33N 29°41' W 095°00'0 0.0
2014-Apr-17 23:33N 29°41' W 095°00'0 0.0
2014-Apr-17 22:33N 29°41' W 095°00'0 0.0
2014-Apr-17 21:29N 29°41' W 095°00'0 0.0
2014-Apr-17 20:23N 29°41' W 095°00'0 0.2
2014-Apr-17 19:29N 29°41' W 095°00'0 0.2
2014-Apr-17 18:25N 29°41' W 095°01'0 0.0
2014-Apr-17 17:31N 29°41' W 095°01'0 0.0
2014-Apr-17 16:31N 29°41' W 095°01'0 0.0
2014-Apr-17 15:31N 29°41' W 095°01'0 0.0
2014-Apr-17 14:31N 29°41' W 095°01'121012029.9
2014-Apr-17 14:25N 33°46' W 118°13'12101343.3
2014-Apr-17 13:31N 29°41' W 095°01'12107932.3
2014-Apr-17 13:21N 33°46' W 118°13'12101429.2
2014-Apr-17 12:31N 29°41' W 095°01'0 0.0
2014-Apr-17 11:31N 29°41' W 095°01'12101206.3
2014-Apr-17 10:30N 33°46' W 118°13'121026553.8
2014-Apr-17 10:28N 29°41' W 095°01'0 0.0
2014-Apr-17 09:31N 29°41' W 095°01'0 0.0
2014-Apr-17 08:31N 29°41' W 095°01'0 0.0
2014-Apr-17 07:25N 29°41' W 095°01'12101010.6
2014-Apr-17 06:13N 33°46' W 118°13'12101507.9
2014-Apr-17 05:25N 29°41' W 095°01'0 0.0
2014-Apr-17 04:23N 29°41' W 095°01'12106239.0
2014-Apr-17 04:11N 33°46' W 118°13'0 0.0
2014-Apr-17 03:33N 33°46' W 118°13'121018934.0
2014-Apr-17 03:29N 29°41' W 095°01'12101303.5
2014-Apr-17 02:33N 33°46' W 118°13'121016814.0
2014-Apr-17 02:29N 29°41' W 095°01'1 1.5
2014-Apr-17 01:33N 29°41' W 094°59'1211256446.8
2014-Apr-17 01:33N 33°46' W 118°13'0 0.0
2014-Apr-17 00:33N 33°46' W 118°13'1214874411.8
2014-Apr-17 00:33N 29°36' W 094°57'7 7.3
2014-Apr-16 23:33N 29°30' W 094°52'122012659.9
2014-Apr-16 23:27N 33°46' W 118°13'0 0.0
2014-Apr-16 22:24N 33°46' W 118°13'0 0.0
2014-Apr-16 20:23N 33°46' W 118°13'0 0.0
2014-Apr-16 19:20N 33°46' W 118°13'0 0.0
2014-Apr-16 17:09N 33°46' W 118°13'0 0.0
2014-Apr-16 16:28N 33°46' W 118°13'1221284.1
2014-Apr-16 12:11N 29°22' W 094°54'12211545.6
2014-Apr-16 11:23N 33°46' W 118°13'0 0.0
2014-Apr-16 10:22N 33°46' W 118°13'0 0.0
2014-Apr-16 09:06N 33°46' W 118°13'0 0.0
2014-Apr-16 08:29N 33°46' W 118°13'0 0.0
2014-Apr-16 07:33N 33°46' W 118°13'0 0.0
2014-Apr-16 06:19N 33°46' W 118°13'0 0.0
2014-Apr-16 05:33N 33°46' W 118°13'0 0.0
2014-Apr-16 04:33N 33°46' W 118°13'0 0.0
2014-Apr-16 03:33N 33°46' W 118°13'0 0.0
2014-Apr-16 02:33N 33°46' W 118°13'0 0.0
2014-Apr-16 01:33N 33°46' W 118°13'0 0.0
2014-Apr-16 00:33N 33°46' W 118°13'0 0.0
2014-Apr-15 23:33N 33°46' W 118°13'0 0.0
2014-Apr-15 22:33N 33°46' W 118°13'1221175869.3
2014-Apr-15 22:33N 29°28' W 094°51'12211229.9
2014-Apr-15 21:33N 33°46' W 118°13'1216182441.7
2014-Apr-15 21:33N 29°34' W 094°55'12161223.8
2014-Apr-15 20:33N 33°46' W 118°13'1212198263.0
2014-Apr-15 20:33N 29°40' W 094°59'12121216.0
2014-Apr-15 19:33N 33°46' W 118°13'120542134.0
2014-Apr-15 19:32N 29°45' W 095°04'12051244.9
2014-Apr-15 18:33N 33°46' W 118°13'1200127075.3
2014-Apr-15 18:33N 29°45' W 095°11'12001207.9
2014-Apr-15 17:33N 33°46' W 118°13'0 0.0
2014-Apr-15 16:33N 33°46' W 118°13'0 0.0
2014-Apr-15 14:23N 33°46' W 118°13'1204310.7
2014-Apr-15 10:31N 29°45' W 095°06'12041261.2
2014-Apr-15 09:34N 33°46' W 118°13'0 0.0
2014-Apr-15 08:34N 33°46' W 118°13'0 0.0
2014-Apr-15 07:34N 33°46' W 118°13'0 0.0
2014-Apr-15 06:34N 33°46' W 118°13'120434951.1
2014-Apr-15 06:32N 29°45' W 095°06'12041246.8
2014-Apr-15 05:34N 33°46' W 118°13'120466675.8
2014-Apr-15 05:33N 29°45' W 095°06'1204606.4
2014-Apr-15 03:34N 33°46' W 118°13'12041168.8
2014-Apr-15 02:32N 29°45' W 095°06'0 0.0
2014-Apr-15 01:32N 29°45' W 095°06'1204610.8
2014-Apr-14 23:34N 33°46' W 118°13'0 0.0
2014-Apr-14 22:34N 33°46' W 118°13'1204541891.1
2014-Apr-14 22:34N 29°46' W 095°05'12041206.5
2014-Apr-14 21:34N 33°46' W 118°13'0 0.0
2014-Apr-14 20:34N 33°46' W 118°13'0 0.0
2014-Apr-14 19:33N 33°46' W 118°13'0 0.0
2014-Apr-14 18:34N 33°46' W 118°13'1204240.8
2014-Apr-14 13:34N 29°45' W 095°06'1 0.2
2014-Apr-14 06:30N 29°47' W 095°06'0 0.1
2014-Apr-14 05:34N 29°47' W 095°06'  

Dump ship's entire track history

sailing weather and tide predictions

Patcona II — WDC2170 — position and weather